Regional Weather Roundup
Issued by NWS

Home | Current Version | Previous Version | Text Only | Print | Product List | Glossary Off
Versions: 1 2 3 4 5 6 7 8 9 10 11 12 13 14 15 16 17 18 19 20 21 22 23 24 25 26 27 28 29 30 31 32 33 34 35 36 37 38 39 40 41 42 43 44 45 46 47 48 49 50

000
ASUS43 KOAX 260510
RWRNE

WEATHER ROUNDUP FOR NEBRASKA
NATIONAL WEATHER SERVICE OMAHA NE
1200 AM CDT MON SEP 26 2016

NOTES: SATELLITE DATA IS BEING USED TO AUGMENT CLOUD COVER ABOVE
       12000 FEET.
       "FAIR" INDICATES FEW OR NO CLOUDS BELOW 12,000 FEET WITH NO
       SIGNIFICANT WEATHER AND/OR OBSTRUCTIONS TO VISIBILITY.

  * THESE STATIONS DO NOT REPORT WEATHER SUCH AS RAIN...SNOW OR FOG.

NEZ001>004-019>022-054>056-260600-
NEBRASKA PANHANDLE

CITY           SKY/WX    TMP DP  RH WIND       PRES   REMARKS
SCOTTSBLUFF    CLEAR     44  37  76 CALM      30.40R
ALLIANCE       CLEAR     36  31  82 CALM      30.37S
CHADRON        CLEAR     41  35  79 SW7       30.36R
KIMBALL        CLEAR     42  37  83 W5        30.43S
SIDNEY         CLEAR     38  34  85 W8        30.42S WCI  32
$$

NEZ057>060-069>072-079>082-260600-
SOUTHWEST NEBRASKA

CITY           SKY/WX    TMP DP  RH WIND       PRES   REMARKS
NORTH PLATTE   CLEAR     42  32  67 CALM      30.36S
IMPERIAL       CLEAR     45  35  68 W3        30.39R
LEXINGTON      CLEAR     42  32  67 W6        30.34S
MCCOOK         CLEAR     43  34  70 SW5       30.35S
OGALLALA       CLEAR     46  34  62 SW6       30.38R
$$

NEZ005>010-023>029-035>040-094-260600-
NORTH CENTRAL NEBRASKA

CITY           SKY/WX    TMP DP  RH WIND       PRES   REMARKS
VALENTINE      CLEAR     41  31  67 W6        30.32R
AINSWORTH      CLEAR     45  33  63 W7        30.31S
BROKEN BOW     CLEAR     39  33  79 CALM      30.32S
O`NEILL        CLEAR     46  32  59 W8        30.29R
ORD            CLEAR     41  33  73 NW6       30.30R
THEDFORD       CLEAR     42  32  66 CALM      30.35S
$$

NEZ041-046>049-061>064-073>077-083>087-260600-
SOUTH CENTRAL NEBRASKA

CITY           SKY/WX    TMP DP  RH WIND       PRES   REMARKS
GRAND ISLAND   CLEAR     46  37  71 W8        30.30S
AURORA         CLEAR     46  40  82 NW6       30.29S
HASTINGS       CLEAR     45  36  70 NW9       30.31S
HEBRON         CLEAR     50  39  66 NW5       30.28S
HOLDREGE       CLEAR     46  31  56 NW5       30.32F
KEARNEY *      CLEAR     46  30  53 W7        30.31F
YORK           CLEAR     46  41  81 NW8       30.28S
$$

NEZ011>018-030>034-042>045-260600-
NORTHEAST NEBRASKA

CITY           SKY/WX    TMP DP  RH WIND       PRES   REMARKS
NORFOLK        CLEAR     49  36  61 W9        30.25S
ALBION         CLEAR     42  37  82 CALM      30.28S
BLAIR          CLEAR     54  40  60 W7        30.21F
FREMONT        CLEAR     47  41  77 W6        30.23S
TEKAMAH        CLEAR     54  39  57 W9        30.21S
WAYNE          CLEAR     47  39  71 W3        30.24S
$$

NEZ050>053-065>068-078-088>093-260600-
SOUTHEAST NEBRASKA

CITY           SKY/WX    TMP DP  RH WIND       PRES   REMARKS
LINCOLN        CLEAR     48  41  76 N3        30.26S
OMAHA EPPLEY   CLEAR     56  39  53 N6        30.21S
BEATRICE       CLEAR     49  42  76 NW7       30.25S
FALLS CITY     CLEAR     52  49  89 NW6       30.22R
NEBRASKA CITY  CLEAR     55  32  42 NW7       30.23R
PLATTSMOUTH    CLEAR     53  39  60 W6        30.22S
$$

NEZ044-045-051>053-067-260600-
OMAHA AREA

CITY           SKY/WX    TMP DP  RH WIND       PRES   REMARKS
OMAHA EPPLEY   CLEAR     56  39  53 N6        30.21S
BLAIR          CLEAR     54  40  60 W7        30.21F
FREMONT        CLEAR     47  41  77 W6        30.23S
MILLARD        CLEAR     55  42  62 CALM      30.22S
OFFUTT AFB     CLEAR     52  44  73 W6        30.20F
PLATTSMOUTH    CLEAR     53  39  60 W6        30.22S
WAHOO          FAIR      55  38  54 W7        30.23F
$$



USA.gov is the U.S. government's official web portal to all federal, state and local government web resources and services.